Colorado Springs, CO

5:09 AM MST on February 21, 2018 (GMT -0700)
City Of Colorado Springs Municipal

Weather History for KCOS - May, 2013

Change the Weather History Date:

Thursday, May 16, 2013

  Actual Average Record
Temperature  
Mean Temperature 64 °F 56 °F  
Max Temperature 80 °F 69 °F 90 °F (1996)
Min Temperature 47 °F 43 °F 26 °F (1916)
Degree Days  
Heating Degree Days 1 9  
Month to date heating degree days 217 183  
Since 1 July heating degree days 6036 6105  
Cooling Degree Days 0 0  
Month to date cooling degree days 6 0  
Year to date cooling degree days 6 1  
Growing Degree Days 14 (Base 50)    
Moisture  
Dew Point 35 °F    
Average Humidity 45    
Maximum Humidity 77    
Minimum Humidity 13    
Precipitation  
Precipitation 0.00 in 0.05 in 0.85 in (1954)
Month to date precipitation 1.09 0.93  
Year to date precipitation 2.68 4.01  
Snow  
Snow 0.00 in 0.00 in 3.10 in (1957)
Month to date snowfall 1.8 0.7  
Since 1 July snowfall 29.6 37.7  
Snow Depth 0.00 in    
Sea Level Pressure  
Sea Level Pressure 29.76 in    
Wind  
Wind Speed 5 mph (NNE)    
Max Wind Speed 29 mph    
Max Gust Speed 37 mph    
Visibility 10 miles    
Events      
T = Trace of Precipitation, MM = Missing Value Source: NWS Daily Summary

Daily Weather History Graph

Daily Weather History Graph

Search for Another Location

Airport or City:

Trip Planner

Search our weather history database for the weather conditions in past years. The results will help you decide how hot, cold, wet, or windy it might be!

Date:

Astronomy

May. 16, 2013 Rise Set
Actual Time 5:45 AM MDT 8:05 PM MDT
Civil Twilight 5:15 AM MDT 8:35 PM MDT
Nautical Twilight 4:38 AM MDT 9:12 PM MDT
Astronomical Twilight 3:57 AM MDT 9:53 PM MDT
Moon 11:19 AM MDT (5/16) 12:28 AM MDT (5/16)
Length of Visible Light 15h 20m
Length of Day
14h 20m
Waxing Crescent, 36% of the Moon is Illuminated
May 16
Waxing Crescent
May 17
First Quarter
May 24
Full
May 31
Last Quarter
Jun 8
New

Hourly Weather History & Observations

Time (MDT) Temp. Dew Point Humidity Pressure Visibility Wind Dir Wind Speed Gust Speed Precip Events Conditions
12:54 AM 53.1 °F 44.1 °F 71% 29.80 in 10.0 mi NNW 4.6 mph - N/A   Partly Cloudy
1:54 AM 53.1 °F 44.1 °F 71% 29.78 in 10.0 mi NW 3.5 mph - N/A   Scattered Clouds
2:54 AM 52.0 °F 43.0 °F 71% 29.81 in 10.0 mi NNE 5.8 mph - N/A   Scattered Clouds
3:54 AM 51.1 °F 43.0 °F 74% 29.83 in 10.0 mi Calm Calm - N/A   Scattered Clouds
4:54 AM 50.0 °F 42.1 °F 74% 29.83 in 10.0 mi North 3.5 mph - N/A   Scattered Clouds
5:54 AM 48.9 °F 41.0 °F 74% 29.81 in 10.0 mi Calm Calm - N/A   Scattered Clouds
6:54 AM 55.0 °F 43.0 °F 64% 29.81 in 10.0 mi East 3.5 mph - N/A   Scattered Clouds
7:54 AM 57.9 °F 43.0 °F 58% 29.81 in 10.0 mi East 4.6 mph - N/A   Scattered Clouds
8:54 AM 63.0 °F 42.1 °F 46% 29.79 in 10.0 mi Calm Calm - N/A   Partly Cloudy
9:54 AM 68.0 °F 39.9 °F 36% 29.76 in 10.0 mi Calm Calm - N/A   Scattered Clouds
10:54 AM 72.0 °F 35.1 °F 26% 29.75 in 10.0 mi ESE 8.1 mph - N/A   Scattered Clouds
11:54 AM 75.0 °F 32.0 °F 21% 29.73 in 10.0 mi Variable 5.8 mph - N/A   Scattered Clouds
12:54 PM 78.8 °F 28.4 °F 16% 29.94 in 10.0 mi ENE 10.4 mph - N/A   Scattered Clouds
1:54 PM 78.1 °F 25.0 °F 14% 29.69 in 10.0 mi Variable 5.8 mph - N/A   Scattered Clouds
2:54 PM 79.0 °F 27.0 °F 15% 29.69 in 10.0 mi North 5.8 mph - N/A   Mostly Cloudy
3:54 PM 75.2 °F 28.4 °F 18% 29.91 in 10.0 mi NW 9.2 mph - N/A   Scattered Clouds
4:54 PM 78.1 °F 26.1 °F 15% 29.67 in 10.0 mi Calm Calm - N/A   Partly Cloudy
5:54 PM 75.9 °F 27.0 °F 16% 29.68 in 10.0 mi ENE 4.6 mph - N/A   Scattered Clouds
6:54 PM 75.0 °F 28.0 °F 18% 29.67 in 10.0 mi South 11.5 mph 33.4 mph N/A   Mostly Cloudy
7:54 PM 72.0 °F 30.0 °F 21% 29.69 in 10.0 mi Variable 5.8 mph - N/A   Mostly Cloudy
8:54 PM 73.9 °F 28.0 °F 18% 29.68 in 10.0 mi WSW 6.9 mph 19.6 mph N/A   Mostly Cloudy
9:54 PM 70.0 °F 32.0 °F 25% 29.70 in 10.0 mi NNW 13.8 mph - N/A   Mostly Cloudy
10:54 PM 68.0 °F 30.9 °F 25% 29.70 in 10.0 mi Calm Calm - N/A   Mostly Cloudy
11:54 PM 64.0 °F 36.0 °F 35% 29.70 in 10.0 mi ENE 10.4 mph - N/A   Mostly Cloudy